COSMOS 1275 DEB, 39947

Orbit data source: Space-Track

COSMOS 1275 DEB, 39947 is space debris in LEO originally from a launch on Thu, 04 Jun 1981 UTC launched from the Plesetsk Missile And Space Complex (PKMTR). Debris objects in space refer to the collection of defunct objects orbiting the Earth. Examples of debris include non-operational satellites, rocket bodies, and fragments generated from explosions, collisions, or faulty payload assembly.

Loading next visibility...
Identifier
39947, 1981-053NH
Orbit
LEO
Country
Flag of CISCIS
Related business
Manufacturer
Unknown
Mission
Spacecraft
Bus & Motor
Unknown
Mass
Unknown
Launch date (UTC)
1981-06-04 (45 years ago)
Launch vehicle
Unknown
Launch site
Plesetsk Missile And Space Complex (PKMTR)
Object type
Payload
Rocket body
Debris
Shape & HBR
Unknown shape, 0.1 m
Radar Cross Section
Small (<0.1 m²)

Expand to show TLE details & history
Last TLE update: 2 days ago

TLE from 2 days ago
0 COSMOS 1275 DEB
1 39947U 81053NH  25339.35111828  .00001775  00000-0  19641-2 0  9993
2 39947  83.0093 112.4024 0116504  55.3561 334.5804 13.68382337571636
Epoch: 2025-12-05T08:25Z
TLE epoch observation values (Epoch: 2025-12-05T08:25:36.619Z)
Latitude
29.16363°
Longitude
-84.49154°
Altitude
931.475 km
Speed
7.427 km/s
True Right ascension
07h 45m 13s
True Declination
29° 01' 16"
Sunlit
Object was in full shadow at epoch
Visualization orbit readout
Latitude
Unknown
Longitude
Unknown
Altitude
Unknown
Speed
Unknown
Apparent Right ascension
Unknown
Apparent Declination
Unknown
Sunlit
N/A
Visualization observer readout
Local Sidereal Time
16:28:38
Azimuth
Unknown
Elevation
Unknown
Doppler factor
Unknown
Orbital elements
Apogee altitude
1,088.527 km
Perigee altitude
916.551 km
Semi-major axis
7,380.676 km
Eccentricity
0.01165
Inclination
83.0093°
RAAN
112.4024°
Arg. of periapsis
55.3561°
True anomaly
333.99972°
Mean anomaly
334.5804°
Eccentric anomaly
334.29083°
Mean motion
3.42294 °/min
Orbital period
105.17 mins
BSTAR
0.0019641
Loading maneuver chart data...
Computing Atmospheric mass density...
Loading historical data...
Loading historical data...
Loading historical data...
Loading historical data...
Loading historical data...
Loading historical data...
Loading historical data...

Documentation

Showing up to 5 results
|